STARLINK-34877 (65630 NORAD) Tracking and Keplerian Element Data

This shows tracking and keplerian element data for the satellite.

Feedback or suggestion? Click here.




ElementValue
Catalog65630
NameSTARLINK-34877
Epoch Orbit1555
Epoch Day354.13797494
Epoch Year2025
RAAN316.4315
Inclination53.1606
Eccentricity0.0001203
Argument of Perigee102.2898
Mean Anonmoly257.8238
Mean Motion15.30199803
Decay Rate0.00015188
L11 65630U 25210J 25354.13797494 .00015188 00000+0 52386-3 0 9992
L22 65630 53.1606 316.4315 0001203 102.2898 257.8238 15.30199803 15552



Live tracking and technical data element details for STARLINK-34877 (NORAD 65630). STARLINK-34877 can be tracked NOW for your location showing map with azimuth and elevation plus other details from your city location.







IsCatalogInMostPopularTable: catalog: 65630, numindb: 8
Update: records affected: 1



GetName: 65630 STARLINK-34877

Hit Count: updated at: Thu, 16 Apr 2026 04:03:15 GMT